Wind_Speed
7 9 6 1 4 2 2 2 5 6 5 1 2 11 9 4 3 5 18 21 23 20 17 13 12 13 12 12 12 10 11 11 12 13 14 14 14 14 14 13 12 12 11 10 11 11 12 12 12
5 5 1 1 3 2 2 4 7 5 7 7 10 5 7 4 4 15 16 24 21 20 17 14 12 14 12 10 9 9 10 11 11 13 13 13 14 13 12 12 12 11 10 9 10 10 10 10 11
5 3 3 3 2 5 5 4 8 6 8 4 5 5 5 4 6 7 28 24 22 20 16 15 14 13 12 10 9 9 9 10 11 12 12 13 11 10 10 11 12 11 11 9 9 9 9 8 9
2 4 4 3 3 5 8 8 9 6 4 7 8 6 5 7 9 19 28 26 25 21 15 15 14 14 13 11 10 10 14 11 8 9 8 8 8 9 9 10 11 11 11 9 6 6 4 6 7
2 3 2 2 4 3 7 10 8 6 5 6 6 3 4 6 25 31 28 26 24 22 16 16 14 14 13 12 12 11 9 8 8 8 8 6 2 5 6 7 7 8 8 6 4 4 4 5 6
2 3 2 1 3 5 4 10 9 6 6 7 7 7 2 24 27 26 26 25 21 20 17 16 14 13 12 11 10 9 8 7 7 6 6 6 4 2 4 4 4 4 4 3 3 3 4 5 6
4 3 3 1 1 5 8 8 9 8 6 5 10 6 6 13 23 22 23 24 21 17 15 14 14 13 11 10 9 8 7 6 6 7 5 6 4 2 2 3 2 2 2 2 3 4 5 6 7
3 4 2 4 6 3 6 5 6 11 2 7 8 6 6 13 26 22 20 23 19 16 13 14 12 11 10 8 7 6 6 5 5 5 4 4 2 1 3 3 2 4 4 5 4 4 5 6 7
2 4 1 4 5 6 5 7 3 3 7 5 3 7 18 32 26 23 25 21 19 15 12 12 11 11 9 7 5 4 3 3 3 3 3 2 3 1 3 3 5 6 5 5 5 4 5 7 7
4 4 2 3 4 4 4 8 7 6 6 6 7 13 29 31 28 26 23 21 21 18 16 13 11 10 10 6 5 6 2 4 3 3 3 2 0 1 3 6 4 5 3 6 2 3 6 6 6
3 4 4 3 4 3 5 4 4 10 4 8 17 15 16 23 23 23 24 26 24 20 19 17 13 12 13 10 7 7 3 2 3 3 3 2 2 1 2 5 5 4 6 6 6 6 8 11 10
5 4 4 2 6 4 4 2 5 4 4 7 19 20 16 12 17 22 25 27 26 25 21 19 17 17 15 11 10 7 3 5 6 7 6 5 3 4 5 7 7 6 8 9 10 11 11 12 12
4 3 5 3 6 6 4 5 4 5 3 9 16 17 15 13 18 25 26 27 27 27 24 20 18 15 14 13 8 6 6 5 3 4 4 5 7 6 7 8 8 8 10 11 12 12 12 12 11
3 7 6 4 5 5 5 2 2 2 6 10 11 10 11 14 20 23 24 26 27 29 26 21 19 16 16 13 9 6 5 6 6 6 6 7 9 8 8 7 8 8 10 12 10 11 13 13 13
7 5 5 2 2 2 1 2 3 2 6 9 9 9 9 14 24 23 24 24 25 27 25 24 20 17 15 15 12 11 9 8 8 6 5 7 7 8 8 10 12 12 12 13 12 8 8 9 6
5 5 4 1 4 1 3 3 2 4 7 7 7 7 8 9 22 26 21 25 24 26 26 22 19 14 13 13 12 12 9 8 6 5 6 5 8 9 9 8 9 9 9 8 7 5 3 3 5
1 5 4 2 2 3 2 4 2 2 5 6 4 5 8 8 8 17 20 26 27 25 22 18 14 13 13 12 11 10 9 7 5 2 1 2 4 4 4 5 6 7 6 5 6 4 4 5 6
6 5 4 6 5 3 3 5 2 2 4 7 6 6 5 8 8 24 26 27 23 20 17 14 13 11 12 12 12 10 8 6 2 2 2 2 2 3 4 2 3 2 2 3 5 6 6 6 6
7 5 6 1 2 4 5 4 9 7 5 7 8 8 6 6 11 24 25 24 22 16 14 13 13 12 14 15 16 12 11 7 5 4 5 5 6 5 3 2 3 4 5 7 8 6 5 3 3
3 4 4 3 1 2 2 8 9 7 8 9 10 9 8 6 6 13 21 20 17 16 14 13 13 13 14 15 16 16 13 9 8 8 7 7 7 6 6 5 6 5 5 5 6 5 2 3 3
3 5 6 6 4 1 1 6 7 7 8 5 7 7 8 10 10 7 16 18 17 16 15 14 13 13 14 15 16 18 13 12 11 9 8 7 7 7 6 6 6 6 6 7 7 7 5 2 3
5 4 8 9 4 3 2 5 5 3 5 7 7 8 8 7 6 6 13 19 21 18 16 14 12 12 14 13 13 14 14 14 8 9 8 7 6 6 7 6 6 6 6 6 6 5 5 2 1
4 10 8 5 5 3 2 0 7 2 4 6 6 5 7 7 6 10 13 19 19 18 16 13 12 11 14 13 13 12 17 13 14 11 8 6 6 6 6 6 6 5 6 6 6 6 6 5 3
7 11 9 6 4 1 7 7 5 4 6 4 4 6 6 7 6 10 18 23 19 15 14 13 12 12 14 14 15 13 16 18 16 13 9 6 5 6 6 5 5 6 6 6 7 7 6 6 6
7 6 3 3 2 5 3 3 6 4 1 6 8 7 6 7 7 7 12 17 16 15 14 13 13 13 14 15 15 15 16 15 14 13 10 7 5 5 5 4 5 5 5 5 5 5 5 5 4
8 6 5 8 5 4 3 7 6 2 6 6 6 7 5 6 7 7 11 15 15 15 15 14 13 14 14 15 17 16 16 15 13 11 10 7 5 4 4 4 4 4 3 4 3 3 4 4 5
5 3 3 6 2 3 4 5 4 2 2 4 6 6 6 6 7 8 11 13 14 16 15 14 15 14 14 16 17 16 15 13 13 11 8 7 5 4 3 3 3 2 1 1 1 2 2 2 3
4 7 3 3 4 3 4 3 5 7 8 7 6 7 7 6 7 7 11 14 14 15 14 14 14 15 15 16 15 15 14 12 11 9 8 7 5 4 3 2 1 1 1 0 0 1 1 1 3
3 3 4 4 4 5 3 5 5 8 9 10 8 8 8 8 7 7 12 15 16 15 16 16 17 17 16 15 15 13 13 11 10 9 8 6 5 4 3 2 1 1 1 0 1 1 1 2 3
2 5 5 4 4 2 2 5 3 4 8 8 8 8 8 7 8 7 14 17 18 18 18 19 18 18 16 15 14 13 12 12 10 9 8 7 7 5 4 3 3 2 2 2 2 2 3 3 3
Wind_Direction
107 107 111 28 43 67 251 57 128 96 59 51 88 89 108 64 54 147 135 146 135 137 138 135 129 132 125 123 117 108 101 95 88 84 86 88 87 88 78 68 72 78 81 79 82 78 73 66 62
150 140 75 79 90 5 295 139 97 109 136 107 78 108 53 56 53 122 111 141 138 137 139 133 130 130 125 121 116 113 110 102 89 86 85 89 90 80 69 63 70 79 80 91 89 80 70 59 52
146 165 91 120 179 178 163 126 125 125 126 104 89 72 93 110 109 123 146 139 132 136 136 131 128 129 134 126 119 114 127 114 95 96 91 89 80 71 66 68 70 77 69 107 96 81 65 46 31
180 30 19 100 275 276 126 157 134 121 59 81 114 63 56 171 135 136 143 136 137 143 140 133 129 127 127 126 122 120 116 113 110 112 97 80 74 69 68 71 71 78 94 96 85 82 62 17 17
192 78 47 80 294 51 109 131 120 110 120 96 98 92 74 63 132 139 143 147 144 147 144 139 133 131 130 129 130 131 134 129 130 131 116 106 87 68 67 70 71 74 77 79 71 54 40 28 26
39 100 66 252 215 127 117 146 127 119 142 125 86 101 69 133 138 145 146 147 145 144 145 144 140 136 134 133 133 135 138 140 138 137 129 118 128 76 59 50 58 60 59 55 45 34 17 5 8
117 90 205 4 164 101 156 138 121 129 125 144 149 103 155 140 148 151 149 146 144 140 146 151 148 143 141 138 139 140 138 137 151 153 142 173 177 240 342 6 11 355 331 331 322 331 336 339 342
107 115 316 204 168 144 154 103 114 113 149 121 136 150 180 172 154 156 152 144 143 146 151 157 154 151 150 149 151 152 151 150 147 163 174 178 202 32 357 350 357 331 307 299 304 317 325 338 338
73 73 271 328 155 184 141 103 13 83 93 49 41 154 147 149 154 151 140 144 145 155 160 157 156 149 145 145 153 162 161 158 152 144 123 126 103 273 356 325 339 327 321 308 299 316 347 347 342
90 107 152 306 331 136 98 103 122 100 85 47 60 90 136 149 157 148 155 154 158 168 171 163 155 152 155 170 150 122 105 101 76 76 90 88 341 313 307 307 317 331 337 343 306 331 314 318 326
112 138 159 348 333 11 111 90 94 123 144 164 146 143 146 150 156 157 165 164 166 170 171 174 168 167 171 183 161 159 147 178 196 210 194 192 172 210 267 276 302 302 296 309 299 288 290 296 301
100 53 105 3 357 57 79 107 86 101 168 180 159 154 151 159 165 170 174 174 173 174 176 177 177 176 179 184 181 197 197 189 201 207 213 206 214 256 265 270 281 287 292 299 294 291 293 294 300
97 129 63 102 65 54 74 63 142 121 119 110 137 155 159 164 174 183 186 182 180 177 176 179 180 181 180 183 182 201 202 206 198 225 238 232 249 273 281 289 295 292 299 300 294 298 301 306 309
114 105 126 73 70 49 84 51 99 155 127 107 135 161 167 170 182 189 196 187 182 180 174 174 181 184 190 191 189 181 158 166 184 192 206 234 254 281 293 312 314 311 304 307 301 288 296 300 304
132 93 92 121 153 92 76 62 206 169 116 137 156 163 182 183 187 193 197 183 172 173 172 173 172 173 164 168 173 191 192 189 192 203 221 260 280 285 290 292 292 303 306 314 327 309 302 313 319
102 82 121 206 143 272 119 235 254 273 148 163 179 205 188 205 191 194 186 169 164 159 165 168 180 187 190 182 172 175 175 183 186 195 213 263 283 289 297 306 311 329 330 321 321 351 3 344 351
208 163 154 187 194 135 146 197 193 59 131 185 231 242 228 214 186 189 171 163 159 167 168 174 181 176 173 170 165 168 179 185 191 212 325 257 255 269 304 316 322 320 318 324 318 335 356 355 13
175 161 151 168 210 152 164 239 221 206 169 217 244 264 267 195 150 134 126 136 143 152 159 169 169 173 166 158 150 154 153 144 119 46 39 54 71 79 89 57 12 339 337 347 1 8 28 21 24
133 140 119 55 334 132 219 258 255 232 216 211 225 242 244 197 148 141 136 134 135 142 156 165 167 167 166 159 152 158 147 127 101 94 89 95 100 102 116 91 77 64 34 16 3 15 42 63 77
105 123 94 58 126 125 198 266 254 237 221 199 203 218 227 119 132 136 144 153 161 157 162 167 172 173 172 171 168 170 154 127 117 109 103 98 101 101 91 71 50 36 23 16 22 28 85 93 53
161 163 156 144 176 126 28 283 247 256 245 201 210 190 199 165 165 161 154 157 156 160 170 176 178 178 169 176 160 148 139 128 123 119 107 90 75 67 61 55 48 41 38 40 37 39 50 98 73
165 153 119 124 105 219 127 277 291 217 207 202 204 199 191 156 174 171 161 162 163 164 170 177 179 178 169 166 172 168 161 146 147 136 114 93 81 73 66 63 60 54 52 49 42 39 42 121 99
174 120 117 105 91 82 262 330 271 161 224 212 201 144 121 108 143 170 164 161 158 159 172 176 178 173 168 169 168 157 151 144 138 134 131 113 89 79 75 69 65 57 48 43 40 42 42 48 47
129 81 49 47 74 300 212 173 262 208 210 154 142 136 119 95 89 117 146 155 150 159 168 170 168 163 161 156 157 166 154 147 146 147 143 131 107 88 79 70 65 61 55 49 46 46 51 56 59
98 84 36 9 351 227 354 193 249 243 185 153 153 156 137 114 123 124 133 148 158 168 169 167 166 153 154 161 157 153 150 152 154 155 156 147 124 102 87 77 70 61 54 55 53 57 65 71 80
170 162 158 196 194 216 353 223 251 178 127 106 125 160 150 137 147 152 162 169 176 177 174 169 162 153 155 155 150 151 151 154 154 157 157 152 145 120 95 77 71 70 60 51 49 54 69 79 90
221 178 147 104 31 70 215 278 300 130 154 157 159 155 176 170 162 173 183 187 185 179 173 170 163 157 156 154 152 151 154 156 154 153 155 152 139 124 114 99 87 84 71 51 56 79 90 105 99
146 158 68 349 128 247 266 264 234 211 211 204 198 202 196 176 173 180 180 183 181 175 170 171 172 164 160 157 156 153 154 154 154 155 157 154 147 144 138 123 98 79 56 25 288 107 113 124 107
151 188 191 133 154 170 161 254 217 222 195 196 204 196 185 184 186 173 177 181 176 173 174 174 174 170 166 165 160 158 157 160 164 164 157 156 159 164 167 163 178 199 245 258 260 138 126 119 111
222 197 155 137 223 225 148 272 328 153 179 177 195 186 184 181 177 180 180 172 172 178 179 179 177 177 176 172 171 171 172 174 172 170 173 176 180 185 202 204 204 214 231 215 197 197 184 172 161
Height
784 785 786 790 814 809 819 811 801 806 809 803 799 808 822 822 827 848 834 835 838 842 846 848 850 851 853 854 856 857 858 859 860 860 860 860 861 861 862 861 861 862 862 862 863 863 862 861 861
784 784 787 796 821 822 827 805 812 805 803 801 804 812 819 833 823 829 833 837 838 842 846 848 850 852 854 855 857 858 859 860 861 861 861 862 862 863 863 862 862 863 863 863 864 864 863 863 862
784 784 794 808 814 822 822 809 810 805 799 801 809 811 819 830 826 828 832 837 839 843 846 849 851 853 855 856 857 859 860 861 862 862 863 863 863 863 863 863 863 863 863 864 864 864 863 863 862
783 785 793 812 816 796 803 808 801 805 801 800 810 825 822 823 825 829 833 836 839 843 846 849 851 853 855 856 858 859 860 861 862 863 863 864 864 864 864 864 864 864 864 865 865 864 864 863 862
782 789 809 816 802 798 797 797 798 806 805 807 808 829 831 826 827 830 834 837 840 843 846 848 851 852 854 856 857 859 860 861 862 863 864 864 864 864 865 865 865 865 865 865 864 864 864 863 862
789 790 817 824 807 800 796 793 799 806 807 812 819 826 832 830 830 833 835 838 842 844 847 849 851 853 855 856 858 859 860 861 862 863 864 864 864 865 865 865 865 865 865 865 864 864 864 863 862
789 802 813 807 808 805 797 790 801 806 807 810 809 830 831 831 833 835 837 839 842 845 848 850 852 854 856 857 858 859 860 861 862 863 863 864 864 865 865 865 865 864 864 864 864 863 863 863 862
788 794 803 803 808 805 792 788 794 801 808 802 807 830 835 828 832 835 838 840 843 845 848 850 852 854 856 857 858 859 860 861 861 862 863 864 864 865 865 865 864 864 863 863 863 863 863 862 861
781 807 812 808 802 800 787 796 795 796 802 805 806 811 814 824 831 834 837 841 844 846 847 850 852 854 856 857 859 860 861 861 862 863 863 864 864 865 865 865 864 864 863 862 862 862 862 862 861
794 813 807 801 797 795 791 793 797 805 809 816 816 814 819 823 829 832 835 839 843 845 848 849 851 854 856 858 859 860 862 862 863 863 864 864 864 864 864 864 864 863 863 862 862 862 862 860 860
790 809 798 801 797 790 793 797 793 808 816 812 818 820 821 824 828 831 834 837 839 843 846 847 849 852 854 856 858 859 861 862 863 863 864 864 864 864 864 863 863 862 862 862 861 860 860 859 859
801 798 796 799 797 792 799 794 801 803 807 802 806 811 818 823 826 828 831 834 836 840 843 846 848 850 853 854 856 857 858 860 861 862 863 863 864 863 863 862 862 862 862 861 860 859 859 858 857
796 798 799 799 799 800 797 805 805 808 804 800 806 812 816 820 824 827 829 831 834 837 841 845 848 850 852 854 855 856 857 859 860 861 861 862 862 862 861 861 861 861 861 860 859 858 858 857 856
793 799 802 801 802 803 804 808 802 804 805 805 809 813 815 817 820 824 826 828 830 834 838 842 846 848 849 851 854 855 856 857 858 859 859 860 860 860 860 859 859 859 858 857 856 856 855 854 854
795 807 805 805 805 810 806 815 814 803 804 809 810 812 814 815 817 820 823 825 828 832 836 839 842 845 846 848 851 852 854 855 856 857 858 858 859 859 858 858 858 857 856 856 855 854 854 854 852
802 808 821 809 808 810 810 825 811 807 806 810 811 811 812 812 813 816 820 823 826 829 833 837 840 843 845 847 849 851 852 853 855 855 855 856 858 858 857 856 855 855 855 854 853 853 852 852 851
809 825 817 815 806 810 812 820 811 807 808 811 810 812 811 810 813 814 816 819 823 827 831 835 838 842 845 846 848 850 851 852 853 854 855 855 856 856 856 856 855 855 854 853 853 852 851 851 851
820 815 810 817 813 811 817 819 811 809 809 813 813 811 810 809 813 813 816 819 823 826 831 834 838 842 844 846 848 849 850 852 853 854 854 854 854 854 855 856 855 854 853 852 852 852 851 851 851
800 801 812 820 813 815 820 820 815 812 813 815 814 812 810 809 813 813 815 819 823 827 830 833 837 841 843 844 846 847 849 852 852 853 853 854 853 853 854 854 853 852 851 850 850 849 850 849 850
797 801 819 821 816 815 818 821 816 809 807 807 809 810 809 812 815 815 815 818 822 825 829 832 835 839 841 842 843 844 847 850 851 852 853 854 853 852 852 852 852 852 851 850 849 848 848 849 849
802 807 813 819 818 818 821 826 814 801 800 799 801 801 804 810 814 815 815 817 820 824 829 832 835 838 840 840 842 844 846 849 851 852 853 854 854 854 853 852 851 851 851 850 849 848 847 848 848
808 799 811 817 823 832 821 838 814 796 798 798 798 800 801 804 810 812 813 816 819 824 828 831 834 837 839 840 841 842 843 847 850 852 853 854 854 853 853 852 851 851 850 850 849 848 847 847 847
803 804 812 816 827 832 830 839 820 800 801 799 800 801 803 807 807 810 814 817 821 824 827 830 833 836 838 839 841 841 843 846 849 851 853 854 853 853 853 852 851 851 850 850 850 849 848 848 848
804 811 822 830 840 864 834 831 824 808 796 797 801 804 804 809 810 811 814 818 821 825 827 829 832 835 837 839 839 841 842 845 847 850 852 853 853 853 852 852 852 851 850 850 850 849 849 849 849
806 820 869 870 881 847 833 833 811 796 791 796 802 805 806 808 812 814 816 819 822 824 827 829 832 835 836 837 839 840 842 845 847 849 850 852 853 852 852 852 852 851 851 850 850 849 849 849 848
810 811 834 834 846 835 835 829 804 794 799 800 802 804 807 809 812 816 817 819 821 823 826 829 832 834 836 837 838 840 842 844 846 848 849 851 851 851 852 853 853 852 852 851 851 850 850 850 849
810 817 813 834 873 851 835 815 797 802 802 801 804 806 807 810 813 814 817 819 821 823 827 829 832 834 835 837 838 840 842 844 845 847 849 850 851 852 852 852 852 852 852 851 851 850 850 850 849
803 807 831 852 867 852 828 812 806 804 802 802 804 806 807 808 810 813 814 818 821 823 826 829 831 833 836 837 838 840 842 844 846 848 849 850 851 852 852 852 852 853 853 852 852 851 851 851 851
807 811 810 821 835 829 831 815 793 791 795 797 798 800 804 807 808 810 812 816 819 822 825 827 830 833 835 837 838 840 842 844 846 847 849 850 851 851 851 852 852 852 853 853 853 853 853 853 853
799 804 805 831 820 840 829 815 784 786 790 792 795 796 801 802 806 808 811 814 817 820 823 825 828 831 834 836 837 839 841 843 845 846 847 847 848 848 849 850 851 851 852 852 852 852 852 852 852